星链-5090 (STARLINK-5090 )

导读 | 豆包AI

STARLINK-5090是美国SpaceX公司于2023年3月29日发射的星链系列低轨卫星,归入星链互联网星座。星链星座通过海量近地轨道小卫星组网,为全球提供高速低延迟宽带互联网服务,该卫星配备激光链路实现星间通信,摆脱对地面网关的过度依赖,优化偏远、海洋区域通信覆盖,提升网络传输效率。作为星链规模化部署的组成单元,它进一步完善星座全球覆盖能力,支撑星链“全天候全球联网”的服务目标。

基本信息
目录编号:
56137
目录名称:
STARLINK-5090
国际标识:
2023-046AX
轨道中心:
EARTH
卫星名称:
星链-5090
卫星全名:
星链-5090 (STARLINK-5090 )
卫星状态:
在轨 (已飞行1128 天)
发射日期:
2023-03-29 UTC
国别 :
美国 (US)
星等 :
--
轨道信息
数据来源 国际轨道数据
星历时间: 2026-04-30T15:06:59+0800
9小时前
查看轨道信息
半长轴: 6861.196km
偏心率: 0.0001231
轨道倾角: 43.000°
近地点辐角 276.148°
升交点赤经 215.451°
平近点角 83.923°
近地点: 482.214km
远地点: 483.904km
周期: 94.267分钟
每日圈数: 15.275769
详细信息
固有亮度:
5
最大亮度:
2.5
卫星平台:
Starlink v1.5
覆盖范围:
全球
运营商:
太空探索技术公司
运营商所在国:
美国
制造商(研发单位):
太空探索技术公司
制造商所在国:
美国
使用方式:
暂无
卫星简介
星链(Starlink)计划是由太空探索技术公司(SpaceX)提出的一个巨型低轨卫星互联网星座项目,计划在2019年至2024年间在太空搭建由约1.2万颗卫星组成的“星链”网络,其中1584颗将部署在地球上空550千米处的近地轨道,并从2020年开始工作。该卫星仍在工作。
2D轨道图
3D轨道图
轨道高度分析图
轨道倾角分析图
轨道综合分析图
查看轨道综合分析图